SAS1558 EHAM-ESSA

Flight info

Callsign SAS1558
Flight time 1h 35m
Altitude 37000
Route ANDIK N873 HUNQI DCT DOSUR DCT BEVUM DCT MIKNA N851 PELUP Z226 NILUG
Aircraft A320/M-SDE3FGHIRWY/LB1

Departure

Time 2026-05-05 17:44
Airport Amsterdam Airport Schiphol (EHAM)

Arrival

Time 2026-05-05 19:19
Airport Stockholm-Arlanda Airport (ESSA)
Time Latitude Longitude Altitude Speed Heading
2026-05-05 16:38 52.30573 4.76491 -1 ft 0 kts 58°
2026-05-05 17:20 52.30568 4.76478 -1 ft 4 kts 49°
2026-05-05 17:20 52.30554 4.76453 -1 ft 3 kts 59°
2026-05-05 17:20 52.30544 4.76414 -1 ft 4 kts 89°
2026-05-05 17:20 52.30548 4.76382 -1 ft 0 kts 112°
2026-05-05 17:23 52.30547 4.76384 -1 ft 1 kts 113°
2026-05-05 17:23 52.30540 4.76408 -1 ft 4 kts 117°
2026-05-05 17:23 52.30539 4.76410 -1 ft 0 kts 117°
2026-05-05 17:24 52.30532 4.76409 -1 ft 1 kts 178°
2026-05-05 17:24 52.30512 4.76401 -1 ft 7 kts 191°
2026-05-05 17:24 52.30460 4.76410 -1 ft 9 kts 152°
2026-05-05 17:25 52.30447 4.76424 -1 ft 0 kts 146°
2026-05-05 17:27 52.30441 4.76435 -1 ft 4 kts 129°
2026-05-05 17:28 52.30450 4.76477 -1 ft 6 kts 17°
2026-05-05 17:28 52.30497 4.76444 -1 ft 9 kts 327°
2026-05-05 17:28 52.30555 4.76442 -1 ft 6 kts 48°
2026-05-05 17:28 52.30568 4.76476 -1 ft 2 kts 59°
2026-05-05 17:29 52.30572 4.76488 -1 ft 0 kts 60°
2026-05-05 17:35 52.30562 4.76466 -1 ft 4 kts 39°
2026-05-05 17:35 52.30550 4.76440 -1 ft 4 kts 65°
2026-05-05 17:35 52.30544 4.76400 -1 ft 4 kts 102°
2026-05-05 17:36 52.30548 4.76382 -1 ft 0 kts 112°
2026-05-05 17:38 52.30532 4.76386 -1 ft 5 kts 178°
2026-05-05 17:38 52.30478 4.76402 -1 ft 11 kts 158°
2026-05-05 17:38 52.30399 4.76473 -1 ft 10 kts 148°
2026-05-05 17:38 52.30344 4.76529 -1 ft 9 kts 153°
2026-05-05 17:39 52.30284 4.76488 -1 ft 13 kts 233°
2026-05-05 17:39 52.30229 4.76351 -1 ft 17 kts 238°
2026-05-05 17:39 52.30161 4.76181 -1 ft 19 kts 237°
2026-05-05 17:39 52.30090 4.76000 -1 ft 17 kts 234°
2026-05-05 17:40 52.30030 4.75839 -1 ft 18 kts 242°
2026-05-05 17:40 52.29968 4.75675 0 ft 13 kts 240°
2026-05-05 17:40 52.29915 4.75535 -1 ft 15 kts 238°
2026-05-05 17:40 52.29863 4.75400 -1 ft 12 kts 237°
2026-05-05 17:41 52.29832 4.75263 -1 ft 13 kts 270°
2026-05-05 17:41 52.29877 4.75129 0 ft 15 kts 312°
2026-05-05 17:41 52.29954 4.74979 -1 ft 17 kts 308°
2026-05-05 17:41 52.30043 4.74815 0 ft 21 kts 313°
2026-05-05 17:42 52.30125 4.74670 9 ft 15 kts 312°
2026-05-05 17:42 52.30194 4.74541 11 ft 16 kts 310°
2026-05-05 17:42 52.30268 4.74399 10 ft 14 kts 311°
2026-05-05 17:42 52.30342 4.74260 -1 ft 16 kts 310°
2026-05-05 17:43 52.30413 4.74124 -1 ft 14 kts 303°
2026-05-05 17:43 52.30408 4.73970 -1 ft 15 kts 264°
2026-05-05 17:43 52.30416 4.73804 -3 ft 14 kts 293°
2026-05-05 17:43 52.30510 4.73766 -3 ft 19 kts
2026-05-05 17:44 52.30881 4.73800 -1 ft 97 kts
2026-05-05 17:44 52.31814 4.73883 34 ft 164 kts
2026-05-05 17:44 52.32921 4.74023 1004 ft 158 kts 11°
2026-05-05 17:44 52.34001 4.74528 1845 ft 169 kts 19°
2026-05-05 17:45 52.35182 4.75230 2462 ft 193 kts 21°
2026-05-05 17:45 52.36531 4.76049 3091 ft 218 kts 21°
2026-05-05 17:45 52.37966 4.77148 3835 ft 244 kts 37°
2026-05-05 17:45 52.39221 4.79160 4936 ft 256 kts 45°
2026-05-05 17:46 52.40543 4.81153 6184 ft 263 kts 41°
2026-05-05 17:46 52.41961 4.83124 7416 ft 270 kts 39°
2026-05-05 17:46 52.43435 4.85112 8613 ft 278 kts 39°
2026-05-05 17:46 52.44948 4.87141 9778 ft 284 kts 39°
2026-05-05 17:47 52.46519 4.89257 10629 ft 304 kts 39°
2026-05-05 17:47 52.48217 4.91561 11216 ft 329 kts 39°
2026-05-05 17:47 52.50020 4.94026 12001 ft 343 kts 39°
2026-05-05 17:47 52.51869 4.96559 12987 ft 350 kts 39°
2026-05-05 17:48 52.53753 4.99146 14009 ft 356 kts 40°
2026-05-05 17:48 52.55674 5.01787 14658 ft 364 kts 40°
2026-05-05 17:48 52.57629 5.04479 15228 ft 369 kts 40°
2026-05-05 17:48 52.59611 5.07208 15838 ft 374 kts 40°
2026-05-05 17:49 52.61591 5.09938 16423 ft 377 kts 40°
2026-05-05 17:49 52.63635 5.12762 16984 ft 381 kts 40°
2026-05-05 17:49 52.65672 5.15587 17494 ft 384 kts 40°
2026-05-05 17:49 52.67725 5.18432 18020 ft 387 kts 40°
2026-05-05 17:50 52.69801 5.21307 18551 ft 391 kts 40°
2026-05-05 17:50 52.71999 5.24353 19111 ft 395 kts 40°
2026-05-05 17:50 52.73910 5.27188 19595 ft 398 kts 46°
2026-05-05 17:50 52.75695 5.30710 20132 ft 402 kts 52°
2026-05-05 17:51 52.77423 5.34370 20675 ft 405 kts 52°
2026-05-05 17:51 52.79143 5.38020 21187 ft 408 kts 52°
2026-05-05 17:51 52.80909 5.41768 21679 ft 412 kts 52°
2026-05-05 17:51 52.82677 5.45528 22143 ft 415 kts 52°
2026-05-05 17:52 52.84454 5.49310 22592 ft 418 kts 52°
2026-05-05 17:52 52.86242 5.53119 23045 ft 421 kts 52°
2026-05-05 17:52 52.88042 5.56959 23490 ft 424 kts 52°
2026-05-05 17:52 52.89860 5.60845 23920 ft 427 kts 52°
2026-05-05 17:53 52.91683 5.64746 24338 ft 430 kts 52°
2026-05-05 17:53 52.93522 5.68693 24773 ft 434 kts 52°
2026-05-05 17:53 52.95368 5.72662 25245 ft 437 kts 52°
2026-05-05 17:53 52.97233 5.76677 25704 ft 440 kts 52°
2026-05-05 17:54 52.99103 5.80699 26146 ft 444 kts 52°
2026-05-05 17:54 53.00999 5.84782 26581 ft 447 kts 52°
2026-05-05 17:54 53.02906 5.88894 26996 ft 450 kts 52°
2026-05-05 17:54 53.04821 5.93032 27408 ft 453 kts 52°
2026-05-05 17:55 53.06728 5.97173 27842 ft 455 kts 52°
2026-05-05 17:55 53.08673 6.01405 28243 ft 459 kts 53°
2026-05-05 17:55 53.10617 6.05641 28609 ft 462 kts 53°
2026-05-05 17:55 53.12572 6.09905 28967 ft 465 kts 53°
2026-05-05 17:56 53.14545 6.14208 29306 ft 469 kts 52°
2026-05-05 17:56 53.16531 6.18546 29612 ft 472 kts 52°
2026-05-05 17:56 53.18528 6.22910 29923 ft 474 kts 53°
2026-05-05 17:56 53.20534 6.27306 30210 ft 477 kts 53°
2026-05-05 17:57 53.22547 6.31729 30499 ft 480 kts 53°
2026-05-05 17:57 53.24564 6.36167 30880 ft 479 kts 53°
2026-05-05 17:57 53.26574 6.40597 31300 ft 478 kts 53°
2026-05-05 17:57 53.28570 6.45015 31713 ft 477 kts 53°
2026-05-05 17:58 53.30582 6.49480 32136 ft 475 kts 53°
2026-05-05 17:58 53.32523 6.53803 32530 ft 474 kts 53°
2026-05-05 17:58 53.34537 6.58134 32931 ft 472 kts 48°
2026-05-05 17:58 53.36821 6.62094 33327 ft 471 kts 44°
2026-05-05 17:59 53.39154 6.65942 33716 ft 470 kts 44°
2026-05-05 17:59 53.41489 6.69764 34114 ft 468 kts 43°
2026-05-05 17:59 53.43825 6.73570 34501 ft 467 kts 43°
2026-05-05 17:59 53.46149 6.77362 34867 ft 467 kts 43°
2026-05-05 18:00 53.48472 6.81166 35223 ft 466 kts 44°
2026-05-05 18:00 53.50786 6.84979 35566 ft 466 kts 44°
2026-05-05 18:00 53.53097 6.88806 35887 ft 466 kts 44°
2026-05-05 18:00 53.55397 6.92625 36203 ft 466 kts 44°
2026-05-05 18:01 53.57705 6.96462 36508 ft 466 kts 44°
2026-05-05 18:01 53.60092 7.00130 36792 ft 465 kts 36°
2026-05-05 18:01 53.62706 7.03361 36917 ft 464 kts 35°
2026-05-05 18:02 53.67893 7.09763 36946 ft 460 kts 35°
2026-05-05 18:02 53.73029 7.16145 36943 ft 458 kts 35°
2026-05-05 18:03 53.78036 7.22697 36943 ft 458 kts 39°
2026-05-05 18:03 53.82866 7.29773 36934 ft 459 kts 40°
2026-05-05 18:04 53.87502 7.37196 36933 ft 459 kts 48°
2026-05-05 18:04 53.91859 7.45123 36940 ft 459 kts 45°
2026-05-05 18:05 53.96332 7.52862 36940 ft 460 kts 45°
2026-05-05 18:05 54.00774 7.60702 36940 ft 460 kts 45°
2026-05-05 18:06 54.05156 7.68642 36941 ft 460 kts 46°
2026-05-05 18:06 54.09520 7.76612 36937 ft 460 kts 46°
2026-05-05 18:07 54.13901 7.84586 36935 ft 460 kts 46°
2026-05-05 18:07 54.18269 7.92540 36932 ft 460 kts 46°
2026-05-05 18:08 54.22601 8.00453 36931 ft 460 kts 46°
2026-05-05 18:08 54.26055 8.06811 36933 ft 460 kts 46°
2026-05-05 18:09 54.31146 8.16204 36928 ft 461 kts 46°
2026-05-05 18:09 54.35480 8.24216 36929 ft 461 kts 46°
2026-05-05 18:10 54.39836 8.32294 36930 ft 462 kts 47°
2026-05-05 18:10 54.44195 8.40417 36934 ft 462 kts 47°
2026-05-05 18:11 54.48553 8.48552 36941 ft 462 kts 47°
2026-05-05 18:11 54.52898 8.56702 36944 ft 462 kts 47°
2026-05-05 18:12 54.57245 8.64874 36943 ft 462 kts 47°
2026-05-05 18:12 54.61579 8.73065 36942 ft 462 kts 47°
2026-05-05 18:13 54.65177 8.79870 36940 ft 462 kts 47°
2026-05-05 18:13 54.69512 8.88081 36940 ft 462 kts 47°
2026-05-05 18:14 54.73833 8.96324 36940 ft 463 kts 47°
2026-05-05 18:14 54.78145 9.04594 36938 ft 463 kts 47°
2026-05-05 18:15 54.82463 9.12875 36934 ft 463 kts 47°
2026-05-05 18:15 54.86746 9.21223 36932 ft 463 kts 49°
2026-05-05 18:16 54.90752 9.29989 36934 ft 463 kts 52°
2026-05-05 18:16 54.94600 9.38986 36935 ft 464 kts 53°
2026-05-05 18:17 54.98466 9.47965 36936 ft 463 kts 52°
2026-05-05 18:17 55.02382 9.56897 36937 ft 463 kts 52°
2026-05-05 18:18 55.06304 9.65804 36943 ft 463 kts 52°
2026-05-05 18:18 55.10209 9.74743 36946 ft 463 kts 52°
2026-05-05 18:19 55.14079 9.83652 36948 ft 463 kts 52°
2026-05-05 18:19 55.17972 9.92652 36953 ft 464 kts 52°
2026-05-05 18:20 55.21859 10.01660 36954 ft 464 kts 52°
2026-05-05 18:20 55.25738 10.10675 36953 ft 464 kts 52°
2026-05-05 18:21 55.29613 10.19743 36952 ft 464 kts 52°
2026-05-05 18:21 55.33467 10.28797 36952 ft 464 kts 52°
2026-05-05 18:22 55.37338 10.37914 36953 ft 464 kts 52°
2026-05-05 18:22 55.41197 10.47007 36957 ft 464 kts 52°
2026-05-05 18:23 55.45046 10.56133 36958 ft 464 kts 53°
2026-05-05 18:23 55.48857 10.65215 36960 ft 464 kts 53°
2026-05-05 18:24 55.52687 10.74376 36961 ft 464 kts 53°
2026-05-05 18:24 55.56510 10.83562 36963 ft 464 kts 53°
2026-05-05 18:25 55.60334 10.92767 36965 ft 464 kts 53°
2026-05-05 18:25 55.64161 11.01980 36967 ft 464 kts 53°
2026-05-05 18:26 55.67973 11.11219 36963 ft 464 kts 53°
2026-05-05 18:26 55.71771 11.20480 36963 ft 464 kts 53°
2026-05-05 18:27 55.75567 11.29757 36963 ft 464 kts 53°
2026-05-05 18:27 55.79358 11.39063 36962 ft 465 kts 53°
2026-05-05 18:28 55.85030 11.53024 36962 ft 465 kts 53°
2026-05-05 18:28 55.88811 11.62387 36963 ft 465 kts 53°
2026-05-05 18:29 55.92576 11.71741 36962 ft 465 kts 53°
2026-05-05 18:29 55.96314 11.81059 36960 ft 465 kts 53°
2026-05-05 18:30 56.00068 11.90467 36962 ft 465 kts 54°
2026-05-05 18:30 56.03939 11.99715 36963 ft 464 kts 46°
2026-05-05 18:31 56.08311 12.08200 36962 ft 463 kts 46°
2026-05-05 18:31 56.12688 12.16684 36961 ft 463 kts 46°
2026-05-05 18:32 56.17054 12.25203 36960 ft 463 kts 46°
2026-05-05 18:32 56.21408 12.33750 36960 ft 464 kts 46°
2026-05-05 18:33 56.25760 12.42321 36953 ft 464 kts 46°
2026-05-05 18:33 56.30080 12.50852 36951 ft 464 kts 46°
2026-05-05 18:34 56.34423 12.59475 36950 ft 465 kts 46°
2026-05-05 18:34 56.38767 12.68116 36949 ft 465 kts 46°
2026-05-05 18:35 56.43105 12.76777 36950 ft 465 kts 46°
2026-05-05 18:35 56.47450 12.85475 36952 ft 465 kts 46°
2026-05-05 18:36 56.51782 12.94193 36951 ft 466 kts 47°
2026-05-05 18:36 56.56105 13.02935 36951 ft 466 kts 47°
2026-05-05 18:37 56.60400 13.11645 36952 ft 466 kts 47°
2026-05-05 18:37 56.64748 13.20481 36953 ft 466 kts 47°
2026-05-05 18:38 56.69067 13.29280 36953 ft 466 kts 47°
2026-05-05 18:38 56.73349 13.38061 36956 ft 467 kts 47°
2026-05-05 18:39 56.77657 13.46908 36956 ft 467 kts 47°
2026-05-05 18:39 56.81957 13.55787 36953 ft 467 kts 47°
2026-05-05 18:40 56.86252 13.64694 36950 ft 467 kts 47°
2026-05-05 18:40 56.90540 13.73612 36950 ft 467 kts 47°
2026-05-05 18:41 56.94829 13.82575 36947 ft 468 kts 47°
2026-05-05 18:41 56.99083 13.91493 36937 ft 467 kts 47°
2026-05-05 18:42 57.03353 14.00487 36932 ft 468 kts 47°
2026-05-05 18:42 57.07626 14.09496 36930 ft 468 kts 47°
2026-05-05 18:43 57.11897 14.18551 36929 ft 468 kts 47°
2026-05-05 18:43 57.16193 14.27553 36920 ft 468 kts 46°
2026-05-05 18:44 57.20592 14.36404 36917 ft 468 kts 46°
2026-05-05 18:44 57.24997 14.45287 36929 ft 468 kts 46°
2026-05-05 18:45 57.29372 14.54212 36910 ft 469 kts 46°
2026-05-05 18:45 57.33735 14.63175 36928 ft 469 kts 46°
2026-05-05 18:46 57.38095 14.72161 36914 ft 469 kts 46°
2026-05-05 18:46 57.42449 14.81159 36922 ft 469 kts 46°
2026-05-05 18:47 57.46799 14.90180 36921 ft 469 kts 46°
2026-05-05 18:47 57.51145 14.99223 36922 ft 469 kts 47°
2026-05-05 18:48 57.55477 15.08280 36914 ft 469 kts 47°
2026-05-05 18:48 57.59784 15.17320 36917 ft 469 kts 47°
2026-05-05 18:49 57.64144 15.26499 36908 ft 470 kts 47°
2026-05-05 18:49 57.68452 15.35587 36916 ft 470 kts 47°
2026-05-05 18:50 57.72779 15.44769 36909 ft 471 kts 47°
2026-05-05 18:50 57.77109 15.54009 36916 ft 471 kts 47°
2026-05-05 18:51 57.79272 15.58632 36789 ft 471 kts 47°
2026-05-05 18:51 57.81430 15.63246 36537 ft 470 kts 47°
2026-05-05 18:51 57.83586 15.67865 36292 ft 470 kts 47°
2026-05-05 18:51 57.85737 15.72492 36047 ft 471 kts 47°
2026-05-05 18:52 57.87892 15.77141 35794 ft 474 kts 47°
2026-05-05 18:52 57.90063 15.81833 35540 ft 477 kts 47°
2026-05-05 18:52 57.92242 15.86549 35291 ft 479 kts 47°
2026-05-05 18:52 57.94421 15.91270 35043 ft 480 kts 47°
2026-05-05 18:53 57.96619 15.96034 34786 ft 480 kts 47°
2026-05-05 18:53 57.98807 16.00788 34543 ft 480 kts 47°
2026-05-05 18:53 58.00996 16.05559 34293 ft 481 kts 47°
2026-05-05 18:53 58.03143 16.10261 34049 ft 481 kts 47°
2026-05-05 18:54 58.05361 16.15130 33794 ft 481 kts 47°
2026-05-05 18:54 58.07541 16.19918 33544 ft 481 kts 47°
2026-05-05 18:54 58.09725 16.24708 33289 ft 482 kts 46°
2026-05-05 18:54 58.12134 16.28924 33036 ft 476 kts 32°
2026-05-05 18:55 58.14900 16.32523 32789 ft 477 kts 31°
2026-05-05 18:55 58.17651 16.36055 32539 ft 478 kts 31°
2026-05-05 18:55 58.20409 16.39584 32287 ft 478 kts 31°
2026-05-05 18:55 58.23132 16.43062 32041 ft 479 kts 31°
2026-05-05 18:56 58.25895 16.46596 31792 ft 479 kts 31°
2026-05-05 18:56 58.28659 16.50147 31540 ft 480 kts 31°
2026-05-05 18:56 58.31428 16.53722 31288 ft 481 kts 31°
2026-05-05 18:56 58.34191 16.57299 31040 ft 482 kts 31°
2026-05-05 18:57 58.36959 16.60893 30796 ft 482 kts 31°
2026-05-05 18:57 58.39735 16.64502 30538 ft 483 kts 31°
2026-05-05 18:57 58.42508 16.68114 30288 ft 483 kts 31°
2026-05-05 18:57 58.45275 16.71727 29947 ft 481 kts 31°
2026-05-05 18:58 58.48047 16.75354 29112 ft 483 kts 31°
2026-05-05 18:58 58.50805 16.78968 28462 ft 480 kts 31°
2026-05-05 18:58 58.53554 16.82576 27774 ft 478 kts 31°
2026-05-05 18:58 58.56296 16.86173 27081 ft 476 kts 31°
2026-05-05 18:59 58.59019 16.89755 26389 ft 474 kts 31°
2026-05-05 18:59 58.60816 16.92130 25944 ft 472 kts 32°
2026-05-05 18:59 58.63514 16.95699 25254 ft 470 kts 31°
2026-05-05 18:59 58.66195 16.99246 24578 ft 466 kts 32°
2026-05-05 19:00 58.69714 17.03916 23709 ft 461 kts 32°
2026-05-05 19:00 58.71497 17.06283 23264 ft 459 kts 32°
2026-05-05 19:00 58.74954 17.10881 22444 ft 454 kts 31°
2026-05-05 19:00 58.76704 17.13212 22033 ft 451 kts 31°
2026-05-05 19:01 58.79269 17.16637 21440 ft 447 kts 32°
2026-05-05 19:01 58.81816 17.20045 20873 ft 443 kts 32°
2026-05-05 19:01 58.84336 17.23418 20302 ft 439 kts 32°
2026-05-05 19:01 58.86836 17.26778 19731 ft 437 kts 32°
2026-05-05 19:02 58.89320 17.30129 19153 ft 435 kts 32°
2026-05-05 19:02 58.91795 17.33470 18574 ft 433 kts 32°
2026-05-05 19:02 58.94261 17.36794 18059 ft 430 kts 32°
2026-05-05 19:02 58.96682 17.40062 17352 ft 418 kts 32°
2026-05-05 19:03 58.98996 17.43199 16786 ft 405 kts 32°
2026-05-05 19:03 59.01278 17.46318 16474 ft 398 kts 32°
2026-05-05 19:03 59.03521 17.49403 16118 ft 393 kts 32°
2026-05-05 19:03 59.05739 17.52459 15779 ft 389 kts 32°
2026-05-05 19:04 59.07933 17.55492 15430 ft 386 kts 32°
2026-05-05 19:04 59.10118 17.58526 15089 ft 384 kts 32°
2026-05-05 19:04 59.12277 17.61522 14753 ft 381 kts 33°
2026-05-05 19:04 59.14426 17.64502 14414 ft 377 kts 32°
2026-05-05 19:05 59.16554 17.67454 14074 ft 374 kts 32°
2026-05-05 19:05 59.18664 17.70385 13752 ft 371 kts 33°
2026-05-05 19:05 59.20754 17.73295 13427 ft 368 kts 33°
2026-05-05 19:05 59.22824 17.76185 13107 ft 365 kts 33°
2026-05-05 19:06 59.24878 17.79069 12785 ft 362 kts 33°
2026-05-05 19:06 59.26900 17.81962 12472 ft 358 kts 34°
2026-05-05 19:06 59.28892 17.84850 12169 ft 355 kts 34°
2026-05-05 19:06 59.30866 17.87725 11735 ft 352 kts 34°
2026-05-05 19:07 59.32824 17.90579 11317 ft 349 kts 34°
2026-05-05 19:07 59.34762 17.93408 10909 ft 345 kts 34°
2026-05-05 19:07 59.36680 17.96208 10527 ft 342 kts 34°
2026-05-05 19:07 59.38711 17.98552 10126 ft 333 kts 24°
2026-05-05 19:08 59.40747 18.00470 9676 ft 317 kts 23°
2026-05-05 19:08 59.42702 18.02269 9244 ft 303 kts 23°
2026-05-05 19:08 59.44567 18.03950 8998 ft 286 kts 23°
2026-05-05 19:08 59.46350 18.05548 8750 ft 282 kts 23°
2026-05-05 19:09 59.48146 18.07156 8462 ft 283 kts 23°
2026-05-05 19:09 59.49936 18.08757 8165 ft 282 kts 23°
2026-05-05 19:09 59.51717 18.10347 7885 ft 280 kts 23°
2026-05-05 19:09 59.53487 18.11915 7634 ft 278 kts 20°
2026-05-05 19:10 59.55315 18.12898 7388 ft 275 kts
2026-05-05 19:10 59.57199 18.13557 7137 ft 274 kts
2026-05-05 19:10 59.59076 18.14179 6941 ft 273 kts
2026-05-05 19:10 59.60949 18.14794 6756 ft 273 kts
2026-05-05 19:11 59.62815 18.15408 6504 ft 271 kts
2026-05-05 19:11 59.64675 18.16017 6254 ft 270 kts
2026-05-05 19:11 59.66529 18.16502 5989 ft 268 kts
2026-05-05 19:11 59.68386 18.16802 5666 ft 267 kts
2026-05-05 19:12 59.70203 18.17071 5337 ft 256 kts
2026-05-05 19:12 59.71943 18.17287 5052 ft 244 kts 358°
2026-05-05 19:12 59.73554 18.16649 4836 ft 234 kts 340°
2026-05-05 19:12 59.75070 18.15560 4427 ft 229 kts 338°
2026-05-05 19:13 59.76540 18.14433 4002 ft 225 kts 338°
2026-05-05 19:13 59.77996 18.13299 3548 ft 224 kts 338°
2026-05-05 19:13 59.79438 18.12161 3095 ft 222 kts 338°
2026-05-05 19:13 59.80870 18.11026 2645 ft 221 kts 338°
2026-05-05 19:14 59.82226 18.09923 2505 ft 203 kts 333°
2026-05-05 19:14 59.83209 18.08100 2515 ft 192 kts 295°
2026-05-05 19:14 59.83437 18.05554 2535 ft 188 kts 261°
2026-05-05 19:14 59.82883 18.03259 2512 ft 186 kts 225°
2026-05-05 19:15 59.81767 18.02040 2511 ft 185 kts 192°
2026-05-05 19:15 59.80530 18.01581 2501 ft 173 kts 189°
2026-05-05 19:15 59.79366 18.01164 2520 ft 168 kts 189°
2026-05-05 19:15 59.78223 18.00749 2516 ft 166 kts 189°
2026-05-05 19:16 59.77086 18.00334 2457 ft 166 kts 190°
2026-05-05 19:16 59.75951 17.99921 2288 ft 165 kts 190°
2026-05-05 19:16 59.74826 17.99509 2089 ft 164 kts 190°
2026-05-05 19:16 59.73751 17.99117 1881 ft 149 kts 190°
2026-05-05 19:17 59.72761 17.98756 1693 ft 142 kts 190°
2026-05-05 19:17 59.71798 17.98404 1509 ft 139 kts 189°
2026-05-05 19:17 59.70858 17.98062 1328 ft 138 kts 189°
2026-05-05 19:17 59.69916 17.97719 1145 ft 138 kts 189°
2026-05-05 19:18 59.68975 17.97379 960 ft 137 kts 189°
2026-05-05 19:18 59.68038 17.97035 783 ft 137 kts 189°
2026-05-05 19:18 59.67106 17.96698 598 ft 136 kts 189°
2026-05-05 19:18 59.66174 17.96358 424 ft 136 kts 190°
2026-05-05 19:19 59.65244 17.96024 235 ft 135 kts 189°
2026-05-05 19:19 59.64333 17.95696 111 ft 122 kts 190°
2026-05-05 19:19 59.63741 17.95482 116 ft 52 kts 189°
2026-05-05 19:19 59.63464 17.95359 120 ft 34 kts 203°
2026-05-05 19:20 59.63292 17.95126 121 ft 24 kts 220°
2026-05-05 19:20 59.63260 17.94930 123 ft 13 kts 319°
2026-05-05 19:20 59.63360 17.94928 120 ft 16 kts
2026-05-05 19:20 59.63483 17.94976 117 ft 20 kts 13°
2026-05-05 19:21 59.63626 17.95033 113 ft 20 kts
2026-05-05 19:21 59.63771 17.95080 111 ft 19 kts 10°
2026-05-05 19:21 59.63910 17.95134 109 ft 22 kts
2026-05-05 19:21 59.64071 17.95184 108 ft 25 kts
2026-05-05 19:22 59.64205 17.95234 107 ft 17 kts 11°
2026-05-05 19:22 59.64318 17.95280 106 ft 12 kts 10°
2026-05-05 19:22 59.64418 17.95313 106 ft 16 kts 10°
2026-05-05 19:22 59.64541 17.95360 105 ft 18 kts 11°
2026-05-05 19:23 59.64656 17.95401 103 ft 17 kts 10°
2026-05-05 19:23 59.64783 17.95448 107 ft 19 kts 10°
2026-05-05 19:23 59.64914 17.95493 109 ft 20 kts 11°
2026-05-05 19:23 59.65046 17.95510 113 ft 19 kts 349°
2026-05-05 19:24 59.65180 17.95444 120 ft 20 kts 345°
2026-05-05 19:24 59.65317 17.95373 124 ft 20 kts 345°
2026-05-05 19:24 59.65458 17.95295 129 ft 21 kts 344°
2026-05-05 19:24 59.65602 17.95218 129 ft 22 kts 345°
2026-05-05 19:25 59.65722 17.95143 125 ft 16 kts 329°
2026-05-05 19:25 59.65736 17.94905 125 ft 21 kts 256°
2026-05-05 19:25 59.65701 17.94636 124 ft 19 kts 255°
2026-05-05 19:25 59.65668 17.94374 126 ft 16 kts 255°
2026-05-05 19:26 59.65638 17.94136 120 ft 19 kts 256°
2026-05-05 19:26 59.65610 17.93920 113 ft 12 kts 253°
2026-05-05 19:26 59.65521 17.93892 113 ft 16 kts 165°
2026-05-05 19:26 59.65405 17.93950 113 ft 14 kts 166°
2026-05-05 19:27 59.65327 17.93939 112 ft 12 kts 227°
2026-05-05 19:27 59.65311 17.93850 112 ft 4 kts 255°
2026-05-05 19:27 59.65310 17.93841 112 ft 0 kts 255°